Location: ?ejkovice
(49.0137°N, 14.3821°E)
Time: 20:44:22
(UTC+00:00)

Cosmos 2333 Rocket - Pass Details

Date: 23 May 2024
Orbit: 838 x 863 km, 70.8° (Epoch: 20 June)

Event Time Altitude Azimuth Distance (km) Brightness Sun altitude
Rises 00:46:31 0° 333° (NNW) 3,423 5.9 -16.4°
Reaches altitude 10° 00:49:03 10° 338° (NNW) 2,488 5.2 -16.2°
Maximum altitude 00:54:39 53° 55° (NE) 1,049 3.0 -15.8°
Drops below altitude 10° 01:00:14 10° 132° (SE) 2,490 4.5 -15.3°
Sets 01:02:45 0° 137° (SE) 3,425 5.2 -15.1°
